National Weather Service United States Department of Commerce

Latest Hourly Weather Roundup

 

 

    
                        
278
ASUS43 KTOP 231108
RWRKS

WEATHER ROUNDUP FOR KANSAS
NATIONAL WEATHER SERVICE GOODLAND KS
600 AM CDT TUE JUL 23 2024

NOTE:  "FAIR" INDICATES FEW OR NO CLOUDS BELOW 12,000 FEET WITH NO
SIGNIFICANT WEATHER AND/OR OBSTRUCTIONS TO VISIBILITY.

KSZ001>006-013>018-027>032-041>047-231200-
NORTHWEST KANSAS

CITY           SKY/WX    TMP DP  RH WIND       PRES   REMARKS
GOODLAND       CLEAR     57  55  93 CALM      30.14S
HAYS           FOG       60  59  96 CALM      30.10S VSB 1/4
RUSSELL        FOG       60  60 100 W5        30.08R VSB 1/2
$$

KSZ061>065-074>080-084>089-231200-
SOUTHWEST KANSAS

CITY           SKY/WX    TMP DP  RH WIND       PRES   REMARKS
DODGE CITY     CLEAR     62  60  93 E3        30.11S FOG
ELKHART        CLEAR     64  57  76 W9        30.17S
GARDEN CITY    CLEAR     57  57 100 CALM      30.12R FOG
GREAT BEND     MOCLDY    61  61 100 SW5       30.10S FOG
LIBERAL        CLEAR     57  55  93 CALM      30.14R
PRATT          PTCLDY    65  65  98 NW7       30.10S
$$

KSZ066>073-081>083-090>101-231200-
SOUTHEAST KANSAS

CITY           SKY/WX    TMP DP  RH WIND       PRES   REMARKS
CHANUTE        CLEAR     62  59  90 CALM      30.06R
COFFEYVILLE    CLEAR     65  62  90 CALM      30.04R
HUTCHINSON     MOCLDY    66  63  90 CALM      30.06S
MEDICINE LODGE   N/A     69  66  90 CALM      30.06S
NEWTON         PTCLDY    64  64 100 SE6       30.07S
PARSONS        CLEAR     63  60  90 CALM      30.06R
WICHITA INTL   MOCLDY    71  64  78 CALM      30.06R
WICHITA JABRA  MOCLDY    65  62  90 S3        30.06S
WICHITA MCCONL MOCLDY    72  64  78 VRB7      30.06R
WINFIELD       PTCLDY    67  65  93 CALM      30.07R
$$

KSZ007>012-019>026-033>040-048>060-102>105-231200-
NORTHEAST KANSAS

CITY           SKY/WX    TMP DP  RH WIND       PRES   REMARKS
CONCORDIA      CLEAR     62  61  96 W3        30.07R
EMPORIA        CLEAR     64  60  87 CALM      30.06R
LAWRENCE       MOCLDY    62  61  96 CALM      30.05S FOG
MANHATTAN      CLEAR     64  62  93 CALM      30.06R
MARYSVILLE     FOG       59  59 100 CALM      30.07S VSB 1/4
OLATHE IND     CLEAR     66  62  87 CALM      30.07R
OLATHE EXE     CLEAR     65  63  93 CALM      30.06R
SALINA         CLEAR     64  61  90 NW3       30.07R
TOPEKA BILLARD CLEAR     65  62  90 CALM      30.05S
TOPEKA FORBES  CLEAR     62  60  93 CALM      30.06R
$$